• In United Kingdom
  • List of Countries
  • For 7 days
  • Water Temperature
  • Satellite Maps
  • Weather Map
  • Weather Widgets
  • user-avatar
    Login

    Hourly Weather Mayrhofen

    Today, 20 October, Saturday

    Time Temperature Precipitation Wind Pressure Humidity
    00:00 +4°C° 0 mm 1 mps 620 mmHg 92%
    01:00 +4°C° 0 mm 1 mps 620 mmHg 92%
    02:00 +4°C° 0 mm 1 mps 620 mmHg 92%
    03:00 +4°C° 0 mm 1 mps 620 mmHg 92%
    04:00 +3°C° 0 mm 1 mps 620 mmHg 92%
    05:00 +3°C° 0 mm 1 mps 620 mmHg 90%
    06:00 +3°C° 0 mm 1 mps 621 mmHg 87%
    07:00 +3°C° 0 mm 1 mps 621 mmHg 85%
    08:00 +6°C° 0 mm 1 mps 622 mmHg 74%
    09:00 +8°C° 0 mm 1 mps 623 mmHg 63%
    10:00 +11°C° 0 mm 1 mps 624 mmHg 52%
    11:00 +10°C° 0 mm 2 mps 624 mmHg 49%
    12:00 +12°C° 0 mm 2 mps 625 mmHg 47%
    13:00 +13°C° 0 mm 2 mps 625 mmHg 44%
    14:00 +12°C° 0 mm 2 mps 625 mmHg 49%
    15:00 +10°C° 0 mm 2 mps 624 mmHg 55%
    16:00 +10°C° 0 mm 2 mps 624 mmHg 61%
    17:00 +8°C° 0 mm 2 mps 623 mmHg 71%
    18:00 +6°C° 0 mm 2 mps 623 mmHg 81%
    19:00 +5°C° 0 mm 1 mps 622 mmHg 91%
    20:00 +5°C° 0 mm 1 mps 622 mmHg 91%
    21:00 +4°C° 0 mm 1 mps 622 mmHg 92%
    22:00 +4°C° 0 mm 1 mps 622 mmHg 93%
    23:00 +4°C° 0 mm 1 mps 622 mmHg 92%

    Tomorrow, 21 October, Sunday

    Time Temperature Precipitation Wind Pressure Humidity
    00:00 +3°C° 0 mm 1 mps 621 mmHg 90%
    01:00 +3°C° 0 mm 1 mps 621 mmHg 89%
    02:00 +2°C° 0 mm 2 mps 621 mmHg 87%
    03:00 +2°C° 0 mm 2 mps 621 mmHg 85%
    04:00 +2°C° 0 mm 2 mps 620 mmHg 83%
    05:00 +2°C° 0 mm 2 mps 620 mmHg 83%
    06:00 +1°C° 0 mm 2 mps 620 mmHg 83%
    07:00 +1°C° 0 mm 2 mps 620 mmHg 83%
    08:00 +3°C° 0 mm 2 mps 621 mmHg 76%
    09:00 +4°C° 0 mm 2 mps 621 mmHg 68%
    10:00 +5°C° 0 mm 3 mps 621 mmHg 61%
    11:00 +7°C° 0 mm 3 mps 622 mmHg 56%
    12:00 +7°C° 0 mm 3 mps 622 mmHg 51%
    13:00 +8°C° 0 mm 3 mps 622 mmHg 46%
    14:00 +7°C° 0 mm 3 mps 621 mmHg 49%
    15:00 +5°C° 0 mm 3 mps 621 mmHg 52%
    16:00 +5°C° 0 mm 3 mps 620 mmHg 55%
    17:00 +4°C° 0 mm 2 mps 620 mmHg 66%
    18:00 +2°C° 0 mm 2 mps 620 mmHg 77%
    19:00 0°C° 0 mm 1 mps 619 mmHg 88%
    20:00 0°C° 0 mm 1 mps 619 mmHg 87%
    21:00 0°C° 0 mm 1 mps 619 mmHg 86%
    22:00 -1°C° 0 mm 1 mps 619 mmHg 86%
    23:00 -1°C° 0 mm 1 mps 619 mmHg 81%

    Day after tomorrow, 22 October, Monday

    Time Temperature Precipitation Wind Pressure Humidity
    00:00 -1°C° 0 mm 1 mps 619 mmHg 77%
    01:00 -1°C° 0 mm 1 mps 619 mmHg 73%
    02:00 -1°C° 0 mm 1 mps 619 mmHg 70%
    03:00 -1°C° 0 mm 1 mps 618 mmHg 67%
    04:00 -1°C° 0 mm 1 mps 618 mmHg 64%
    05:00 -1°C° 0 mm 1 mps 618 mmHg 62%
    06:00 -1°C° 0 mm 1 mps 619 mmHg 61%
    07:00 -1°C° 0 mm 1 mps 619 mmHg 59%
    08:00 +2°C° 0 mm 1 mps 620 mmHg 52%
    09:00 +4°C° 0 mm 1 mps 621 mmHg 45%
    10:00 +6°C° 0 mm 2 mps 622 mmHg 38%
    11:00 +7°C° 0 mm 2 mps 622 mmHg 38%
    12:00 +7°C° 0 mm 2 mps 621 mmHg 39%
    13:00 +8°C° 0 mm 2 mps 621 mmHg 40%
    14:00 +7°C° 0 mm 3 mps 621 mmHg 46%
    15:00 +5°C° 0 mm 3 mps 621 mmHg 53%
    16:00 +4°C° 0 mm 3 mps 620 mmHg 60%
    17:00 +4°C° 0 mm 2 mps 620 mmHg 69%
    18:00 +2°C° 0 mm 2 mps 620 mmHg 79%
    19:00 +1°C° 0 mm 2 mps 620 mmHg 89%
    20:00 +1°C° 0 mm 2 mps 621 mmHg 89%
    21:00 -1°C° 0 mm 2 mps 621 mmHg 90%
    22:00 -1°C° 0 mm 2 mps 621 mmHg 90%
    23:00 -1°C° 0 mm 2 mps 621 mmHg 90%

    23 October, Tuesday

    Time Temperature Precipitation Wind Pressure Humidity
    00:00 -1°C° 0 mm 2 mps 621 mmHg 90%
    01:00 -1°C° 0 mm 2 mps 621 mmHg 90%
    02:00 -1°C° 0 mm 2 mps 621 mmHg 90%
    03:00 -1°C° 0 mm 2 mps 621 mmHg 89%
    04:00 -1°C° 0 mm 2 mps 621 mmHg 89%
    05:00 -2°C° 0 mm 2 mps 621 mmHg 89%
    06:00 -2°C° 0 mm 2 mps 621 mmHg 89%
    07:00 -2°C° 0 mm 2 mps 621 mmHg 89%
    08:00 -1°C° 0 mm 2 mps 621 mmHg 82%
    09:00 +2°C° 0 mm 2 mps 622 mmHg 74%
    10:00 +4°C° 0 mm 2 mps 622 mmHg 66%
    11:00 +4°C° 0 mm 2 mps 622 mmHg 62%
    12:00 +5°C° 0 mm 2 mps 622 mmHg 58%
    13:00 +6°C° 0 mm 2 mps 622 mmHg 54%
    14:00 +5°C° 0 mm 2 mps 622 mmHg 57%
    15:00 +5°C° 0 mm 2 mps 621 mmHg 60%
    16:00 +5°C° 0 mm 2 mps 621 mmHg 62%
    17:00 +3°C° 0 mm 2 mps 620 mmHg 71%
    18:00 +2°C° 0 mm 2 mps 620 mmHg 79%
    19:00 -1°C° 0 mm 2 mps 620 mmHg 88%
    20:00 -1°C° 0.2 mm 2 mps 620 mmHg 86%
    21:00 +1°C° 0.2 mm 2 mps 620 mmHg 84%
    22:00 +1°C° 0.2 mm 2 mps 620 mmHg 83%
    23:00 +1°C° 0.2 mm 2 mps 620 mmHg 82%

    24 October, Wednesday

    Time Temperature Precipitation Wind Pressure Humidity
    00:00 +1°C° 0.2 mm 2 mps 619 mmHg 81%
    01:00 +1°C° 0.2 mm 2 mps 619 mmHg 79%
    02:00 0°C° 0.6 mm 3 mps 619 mmHg 82%
    03:00 +1°C° 0.6 mm 3 mps 619 mmHg 84%
    04:00 +1°C° 0.6 mm 3 mps 618 mmHg 86%
    05:00 +1°C° 1.2 mm 3 mps 618 mmHg 88%
    06:00 +1°C° 1.2 mm 3 mps 618 mmHg 89%
    07:00 +2°C° 1.2 mm 3 mps 618 mmHg 91%
    08:00 +2°C° 1.5 mm 3 mps 618 mmHg 90%
    09:00 +3°C° 1.5 mm 3 mps 618 mmHg 89%
    10:00 +3°C° 1.5 mm 3 mps 618 mmHg 88%
    11:00 +3°C° 1.5 mm 3 mps 619 mmHg 88%
    12:00 +3°C° 1.5 mm 3 mps 619 mmHg 87%
    13:00 +4°C° 1.5 mm 3 mps 619 mmHg 87%
    14:00 +3°C° 1.6 mm 3 mps 619 mmHg 88%
    15:00 +3°C° 1.6 mm 3 mps 618 mmHg 89%
    16:00 +3°C° 1.6 mm 3 mps 618 mmHg 90%
    17:00 +3°C° 1.6 mm 3 mps 618 mmHg 91%
    18:00 +3°C° 1.6 mm 3 mps 619 mmHg 92%
    19:00 +2°C° 1.6 mm 3 mps 619 mmHg 93%
    20:00 +3°C° 1.2 mm 3 mps 619 mmHg 93%
    21:00 +3°C° 1.2 mm 3 mps 619 mmHg 94%
    22:00 +3°C° 1.2 mm 3 mps 619 mmHg 94%
    23:00 +3°C° 0.4 mm 3 mps 619 mmHg 94%

    25 October, Thursday

    Time Temperature Precipitation Wind Pressure Humidity
    00:00 +2°C° 0.4 mm 3 mps 619 mmHg 95%
    01:00 +2°C° 0.4 mm 3 mps 619 mmHg 95%
    02:00 +2°C° 0.1 mm 3 mps 619 mmHg 95%
    03:00 +2°C° 0.1 mm 3 mps 619 mmHg 95%
    04:00 +3°C° 0.1 mm 2 mps 619 mmHg 95%
    05:00 +2°C° 0.1 mm 2 mps 619 mmHg 95%
    06:00 +2°C° 0.1 mm 2 mps 619 mmHg 95%
    07:00 +2°C° 0.1 mm 2 mps 619 mmHg 94%
    08:00 +3°C° 0 mm 2 mps 619 mmHg 91%
    09:00 +5°C° 0 mm 2 mps 620 mmHg 87%
    10:00 +6°C° 0 mm 2 mps 620 mmHg 83%
    11:00 +7°C° 0 mm 2 mps 620 mmHg 79%
    12:00 +8°C° 0 mm 2 mps 620 mmHg 76%
    13:00 +8°C° 0 mm 2 mps 620 mmHg 72%
    14:00 +8°C° 0 mm 2 mps 620 mmHg 74%
    15:00 +9°C° 0 mm 1 mps 619 mmHg 75%
    16:00 +8°C° 0 mm 1 mps 619 mmHg 76%
    17:00 +6°C° 0 mm 1 mps 618 mmHg 80%
    18:00 +5°C° 0 mm 1 mps 618 mmHg 84%
    19:00 +3°C° 0 mm 1 mps 617 mmHg 88%
    20:00 +3°C° 0 mm 1 mps 617 mmHg 86%
    21:00 +2°C° 0 mm 1 mps 617 mmHg 83%
    22:00 +2°C° 0 mm 1 mps 617 mmHg 81%
    23:00 +2°C° 0 mm 1 mps 617 mmHg 78%
    Show more